Regional Weather Roundup
Issued by NWS

Home | Current Version | Previous Version | Graphics & Text | Print | Product List | Glossary On
Versions: 1 2 3 4 5 6 7 8 9 10 11 12 13 14 15 16 17 18 19 20 21 22 23 24 25 26 27 28 29 30 31 32 33 34 35 36 37 38 39 40 41 42 43 44 45 46 47 48 49 50
000
ASUS45 KBOU 132107
RWRCO

WEATHER ROUNDUP FOR COLORADO
NATIONAL WEATHER SERVICE DENVER/BOULDER CO
200 PM MST SAT FEB 13 2016

NOTE: "FAIR" INDICATES FEW OR NO CLOUDS BELOW 12000 FEET WITH NO
SIGNIFICANT WEATHER AND/OR OBSTRUCTIONS TO VISIBILITY.

COZ001>005-013-030-031-132200-
...NORTHWEST COLORADO...

CITY           SKY/WX    TMP DP  RH WIND       PRES   REMARKS
CRAIG          PTSUNNY   31  23  72 W3        30.19F
HAYDEN         FAIR      30  19  64 W3        30.18F
MEEKER         PTSUNNY   41  26  55 NW3       30.18F
MOUNT WERNER   NOT AVBL
STEAMBOAT SPGS PTSUNNY   33  23  68 CALM      30.18F
WALDEN         FAIR      37  18  44 SW18G26   30.14F
$$

COZ006>008-011-132200-
...WEST CENTRAL VALLEYS...

CITY           SKY/WX    TMP DP  RH WIND       PRES   REMARKS
GRAND JUNCTION FAIR      43  31  62 NW8       30.20F
MONTROSE       FAIR      46  29  51 N7        30.21F
EAGLE          PTSUNNY   48  16  27 MISG      30.15F
RIFLE          FAIR      40  21  46 CALM      30.20F
DELTA          FAIR      52  32  47 SW10      30.18F
NUCLA          FAIR      52  23  32 NW6       30.23F
$$

COZ017>023-064>068-132200-
...SOUTHWEST COLORADO...

CITY           SKY/WX    TMP DP  RH WIND       PRES   REMARKS
DURANGO        FAIR      51  23  33 SW8       30.18F
CORTEZ         FAIR      57  27  31 CALM      30.19F
PAGOSA SPRINGS FAIR      54  14  21 SW13G21   30.19F
TELLURIDE      FAIR      49   3  15 W5        30.28F
WOLF CREEK PAS FAIR      34  14  44 SW20G30   30.34F WCI  22
$$

COZ009-010-012-014-032>034-037-058>063-132200-
...CENTRAL COLORADO...

CITY           SKY/WX    TMP DP  RH WIND       PRES   REMARKS
ASPEN          FAIR      44  18  35 NW14      30.16F
BUENA VISTA    FAIR      55   3  12 W22G35    30.09F
COPPER MTN     FAIR      36  -4  18 NW29G38   30.24F
BERTHOUD PASS  FAIR      28  18  64 MISG      30.18F
COTTONWOOD PAS NOT AVBL
GUNNISON       FAIR      18  16  93 CALM      30.28F
KREMMLING      FAIR      23  12  63 CALM      30.17F
LEADVILLE      FAIR      40   5  23 W23G38    30.16F
MONARCH PASS   FAIR      32   5  32 W37G48    30.37F WCI  16
SALIDA         NOT AVBL
SUNLIGHT       CLOUDY    39  16  38 SW3       30.29F
WILKERSON PASS FAIR      39  -4  16 W16G29    30.20F
$$

COZ069>075-132200-
...SAN LUIS VALLEY/SANGRE DE CRISTO MOUNTAINS...

CITY           SKY/WX    TMP DP  RH WIND       PRES   REMARKS
ALAMOSA        FAIR      59  14  17 NW3       30.11F
LA VETA PASS   FAIR      46  18  31 S13G29    30.18S
SAGUACHE       FAIR      52  23  32 CALM      30.15F
$$

COZ035-036-038>040-132200-
...NORTHERN COLORADO FRONT RANGE...

CITY           SKY/WX    TMP DP  RH WIND       PRES   REMARKS
DENVER INTL AP PTSUNNY   62  15  16 CALM      29.94F
DMNS CITY PARK   N/A     65  11  12 N8G18     29.92F
AURORA         PTSUNNY   64  14  14 N12       29.95F
FRONT RANGE AP PTSUNNY   59  25  27 MISG      29.95F
ERIE MUNI ARPT FAIR      55  39  54 CALM      29.94S
BOULDER MUN AP FAIR      59  30  33 E5        29.94R
CENTENNIAL     PTSUNNY   64  19  17 NE9       29.94F
BROOMFIELD     MOSUNNY   66   9  10 W28G35    29.96F
FORT COLLINS   FAIR      39  37  93 SE3       29.96F
LONGMONT       FAIR      51  35  54 E5        29.96S
$$

COZ041-046-047-076>085-087-088-132200-
...PIKES PEAK/PALMER DIVIDE AND SOUTHERN FOOTHILLS...

CITY           SKY/WX    TMP DP  RH WIND       PRES   REMARKS
COLO. SPRINGS  FAIR      67   6   9 VRB5      29.96F
A. F. ACADEMY  FAIR      63   1   8 W18G37    29.96F
SCHRIEVER AFB  FAIR      62  11  13 S6G14     29.97F
ELLICOTT       LGT RAIN N/A N/A N/A SW14      29.95F
FALCON         FAIR      62   7  11 SW10G17   30.00F
FORT CARSON    FAIR      65  19  17 W6        29.93F
LIMON          FAIR      42  34  73 N6        29.95F
MONUMENT HILL  FAIR      52  19  28 W8        30.00F
TRINIDAD       FAIR      73   6   7 W17       29.98F
$$

COZ042>045-048>051-090-091-132200-
...NORTHEAST COLORADO...

CITY           SKY/WX    TMP DP  RH WIND       PRES   REMARKS
GREELEY ARPT   FAIR      37  34  87 S3        29.96F
AKRON          FAIR      37  34  89 W6        29.94F
BURLINGTON     CLOUDY    31  29  92 S12       29.98F WCI  22
WRAY           PTSUNNY   37  31  79 S6        29.99F
STERLING       FAIR      41  34  75 SW9       29.94F
HOLYOKE        CLOUDY    34  32  93 S6        29.98F WCI  29
FORT MORGAN    CLOUDY    34  33  96 W7        29.96F FOG     WCI  28
$$

COZ086-089-092>099-132200-
...SOUTHEAST COLORADO...

CITY           SKY/WX    TMP DP  RH WIND       PRES   REMARKS
PUEBLO         FAIR      69  26  20 SW15G24   29.91F
LA JUNTA       FAIR      46  31  55 NE5       29.95F
LAMAR          FAIR      43  31  62 N3        29.96F
SPRINGFIELD      N/A     69  30  23 NE10      29.91F
$$



USA.gov is the U.S. government's official web portal to all federal, state and local government web resources and services.